Hourly Data Report for September 08, 2017

All times are specified in Local Standard Time (LST). Add 1 hour to adjust for Daylight Saving Time where and when it is observed.

RANKIN INLET A
NUNAVUT

62°48'38.000" N
92°06'53.000" W
32.30 m
2303405
71083
YRT

Download Data

Hourly Data (September 2017)
Hourly Data Report for September 8, 2017
Temp Definition
°C
Dew Point Temp Definition
°C
Rel Hum Definition
%
Wind Dir Definition
10's deg

Wind Spd Definition
km/h
Visibility Definition
km
Stn Press Definition
kPa
Hmdx Definition


Wind Chill Definition


Weather Definition


TIME
00:00 Legend Double Dagger 7.6 6.7 94 18 22 16.1 100.14     Rain
01:00 Legend Double Dagger 7.7 6.9 94 16 20 24.1 99.97     LegendNANA
02:00 Legend Double Dagger 8.2 7.2 93 18 19 16.1 99.85     LegendNANA
03:00 Legend Double Dagger 9.3 7.8 90 19 26 24.1 99.67     Mostly Cloudy
04:00 Legend Double Dagger 9.7 8.1 89 20 28 24.1 99.55     LegendNANA
05:00 Legend Double Dagger 9.8 8.1 89 20 25 16.1 99.44     LegendNANA
06:00 Legend Double Dagger 9.6 7.9 89 19 32 12.9 99.28     Mostly Cloudy
07:00 Legend Double Dagger 9.5 7.9 90 20 32 16.1 99.16     LegendNANA
08:00 Legend Double Dagger 9.7 8.2 90 20 27 16.1 99.05     LegendNANA
09:00 Legend Double Dagger 10.5 8.7 88 21 35 12.9 98.86     Smoke
10:00 Legend Double Dagger 11.1 9.2 88 20 30 9.7 98.75     Smoke
11:00 Legend Double Dagger 12.2 9.9 86 21 26 8.1 98.74     Smoke
12:00 Legend Double Dagger 13.9 10.8 82 20 22 8.1 98.60     Smoke
13:00 Legend Double Dagger 16.0 11.5 74 23 23 6.4 98.53     Smoke
14:00 Legend Double Dagger 18.9 12.6 67 24 32 6.4 98.48     Smoke
15:00 Legend Double Dagger 19.3 13.1 67 25 32 4.8 98.47     Smoke
16:00 Legend Double Dagger 20.5 13.1 62 26 32 12.9 98.45     Smoke
17:00 Legend Double Dagger 19.6 12.7 64 26 31 12.9 98.49     Smoke
18:00 Legend Double Dagger 18.0 10.7 62 27 39 12.9 98.61     Smoke
19:00 Legend Double Dagger 15.9 10.7 71 28 26 12.9 98.66     Smoke
20:00 Legend Double Dagger 14.7 10.6 76 28 27 16.1 98.79     Smoke
21:00 Legend Double Dagger 13.1 9.8 80 28 23 12.9 98.87     Smoke
22:00 Legend Double Dagger 13.5 9.0 74 29 30 24.1 99.01     LegendNANA
23:00 Legend Double Dagger 11.9 7.8 76 28 21 24.1 99.09     LegendNANA

Notes on Data Quality.

Legend

  • E = Estimated
  • M = Missing
  • NA = Not Available
  • ‡ = Partner data that is not subject to review by the National Climate Archives
Date modified: